Location: Newark
(49.8969°N, 3.3422°E)
Time: 20:42:10
(UTC+00:00)

Vanguard 1 Rocket - Pass Details

Date: 20 January 2020
Orbit: 650 x 4226 km, 34.3° (Epoch: 22 February)

Event Time Altitude Azimuth Distance (km) Brightness Sun altitude
Rises 08:35:42 0° 183° (S) 4,267 11.5 6.9°
Reaches altitude 10° 08:39:59 10° 160° (SSE) 3,849 12.0 7.4°
Maximum altitude 08:45:10 15° 129° (SE) 4,118 13.3 8.0°
Drops below altitude 10° 08:51:58 10° 101° (E) 5,330 12.4 8.8°
Sets 09:00:11 0° 84° (E) 7,186 12.5 9.7°
